Location: Pcim
(49.7500°N, 19.9670°E)
Time: 00:33:09
(UTC+01:00)

ISS - Visible Passes

Search period start: 04 December 2023 00:00
Search period end: 14 December 2023 00:00
Orbit: 415 x 417 km, 51.6° (Epoch: 03 December)

Date Brightness Start Highest point End Pass type
(mag) Time Alt. Az. Time Alt. Az. Time Alt. Az.
04 Dec -1.4 17:30:28 10° W 17:33:11 23° SW 17:35:52 10° SSE visible
05 Dec -1.9 16:41:46 10° W 16:44:49 33° SSW 16:47:52 10° SSE visible
06 Dec -0.3 17:31:52 10° WSW 17:32:32 10° SW 17:33:11 10° SW visible
07 Dec -0.6 16:42:08 10° W 16:44:17 16° SW 16:46:27 10° S visible
